Location: Erfurt
(50.9861°N, 11.0303°E)
Time: 20:02:12
(UTC+01:00)

ISS - Visible Passes

Search period start: 07 December 2025 00:00
Search period end: 17 December 2025 00:00
Orbit: 416 x 421 km, 51.6° (Epoch: 07 December)

Date Brightness Start Highest point End Pass type
(mag) Time Alt. Az. Time Alt. Az. Time Alt. Az.
11 Dec -0.3 07:15:20 10° SSE 07:16:55 13° SE 07:18:31 10° ESE visible
13 Dec -1.3 07:14:35 10° SSW 07:17:27 26° SSE 07:20:19 10° E visible
14 Dec -0.9 06:27:14 10° S 06:29:39 18° SE 06:32:03 10° E visible
15 Dec -0.7 05:40:21 10° SSE 05:41:52 12° SE 05:43:22 10° ESE visible
15 Dec -2.8 07:14:46 10° SW 07:18:02 49° SSE 07:21:19 10° E visible
16 Dec -2.2 06:26:59 10° SW 06:30:06 35° SSE 06:33:13 10° E visible
